Powrót do katalogu

STARLINK-36376

AktywnyŁącznośćSSO
NORAD 67590·PAYLOAD·🇺🇸 United States

Wystrzelony Jan 29, 2026 z Vandenberg Space Force Base

Loading…

Następne Przeloty (najbliższe 24 godziny)

TLE

ŚwieżeSource: CelesTrak SupGP

Epoka: Sep 15, 2026, 04:09 UTC

1 67590C 26018B   26258.17340278 -.00012656  00000+0 -39288-3 0  2581
2 67590  97.2851 321.6937 0000928  84.5765 258.2423 15.33445694    17

Śledź STARLINK-36376 w czasie rzeczywistym z AllMySat

Download on the App Store